Location: Unspecified
(0.0000°N, 0.0000°E)
Time: 19:33:08
(UTC+00:00)

TRS 6 - Visible Passes

Search period start: 17 February 2019 00:00
Search period end: 27 February 2019 00:00
Orbit: 3571 x 3717 km, 87.3° (Epoch: 16 February)

Date Brightness Start Highest point End Pass type
(mag) Time Alt. Az. Time Alt. Az. Time Alt. Az.
17 Feb ? 19:50:33 10° S 20:09:35 87° W 20:28:57 10° N visible
18 Feb ? 05:41:41 10° NE 05:53:58 21° E 06:05:53 10° SE visible
18 Feb ? 18:06:25 10° SE 18:22:19 33° E 18:38:04 10° NNE visible
18 Feb ? 20:49:48 10° SSW 21:07:20 48° W 21:25:27 10° NNW visible
19 Feb ? 19:01:14 10° SSE 19:19:58 65° E 19:38:51 10° N visible
19 Feb ? 21:52:36 10° SW 22:05:02 22° W 22:17:54 10° NW visible
20 Feb ? 19:58:54 10° S 20:17:44 73° W 20:36:58 10° N visible
21 Feb ? 05:47:12 10° NE 06:02:04 29° E 06:16:26 10° SSE visible
21 Feb ? 18:13:07 10° SSE 18:30:25 42° E 18:47:38 10° NNE visible
21 Feb ? 20:59:04 10° SSW 21:15:29 38° W 21:32:26 10° NNW visible
22 Feb ? 19:09:04 10° S 19:28:07 79° E 19:47:23 10° N visible
22 Feb ? 22:04:37 10° WSW 22:13:07 15° W 22:21:50 10° WNW visible
23 Feb ? 05:04:23 10° ENE 05:12:31 14° E 05:20:28 10° ESE visible
23 Feb ? 20:07:32 10° S 20:25:52 60° W 20:44:42 10° NNW visible
24 Feb ? 18:20:17 10° SSE 18:38:32 54° E 18:56:46 10° NNE visible
24 Feb ? 21:08:50 10° SSW 21:23:36 29° W 21:38:53 10° NW visible
25 Feb ? 19:17:11 10° S 19:36:15 86° W 19:55:39 10° N visible
26 Feb ? 05:08:11 10° NE 05:20:35 21° E 05:32:37 10° SE visible
26 Feb ? 20:16:27 10° SSW 20:34:00 48° W 20:52:06 10° NNW visible
